This is the latest recevied weather packets stored in our database for station/object TAPIOLA. If no packets are shown the sender has not sent any weather packets the latest 10 day(s).
| Time | Temp. | Humidity | Pressure | Rain* | Wind** | Luminosity | Snow |
|---|---|---|---|---|---|---|---|
| 1777566414 | 12.78° C | 67% | 1019.7 hPa | 0 mm | - | - | - |
| 1777565214 | 12.78° C | 63% | 1019.7 hPa | 0 mm | - | - | - |
| 1777564014 | 12.78° C | 64% | 1019.7 hPa | 0 mm | - | - | - |
| 1777562813 | 13.33° C | 61% | 1019.7 hPa | 0 mm | - | - | - |
| 1777561613 | 14.44° C | 57% | 1019.7 hPa | 0 mm | - | - | - |
| 1777560414 | 13.33° C | 61% | 1019.8 hPa | 0 mm | - | - | - |
| 1777559213 | 12.78° C | 64% | 1019.9 hPa | 0 mm | - | - | - |
| 1777558013 | 12.22° C | 65% | 1020 hPa | 0 mm | - | - | - |
| 1777556813 | 11.67° C | 65% | 1020 hPa | 0 mm | - | - | - |
| 1777555613 | 11.67° C | 66% | 1020.1 hPa | 0 mm | - | - | - |
| 1777554413 | 11.67° C | 66% | 1020.2 hPa | 0 mm | - | - | - |
| 1777553213 | 13.33° C | 58% | 1020.4 hPa | 0 mm | - | - | - |
| 1777552013 | 15° C | 54% | 1020.4 hPa | 0 mm | - | - | - |
| 1777550813 | 13.33° C | 56% | 1020.7 hPa | 0 mm | - | - | - |
| 1777549613 | 13.33° C | 56% | 1020.5 hPa | 0 mm | - | - | - |
| 1777548413 | 13.33° C | 56% | 1020.7 hPa | 0 mm | - | - | - |
| 1777547212 | 12.78° C | 57% | 1020.7 hPa | 0 mm | - | - | - |
| 1777546013 | 13.33° C | 56% | 1020.8 hPa | 0 mm | - | - | - |
| 1777544813 | 12.78° C | 58% | 1021 hPa | 0 mm | - | - | - |
| 1777543613 | 11.67° C | 62% | 1021 hPa | 0 mm | - | - | - |
| 1777542412 | 11.67° C | 64% | 1021.1 hPa | 0 mm | - | - | - |
| 1777541213 | 11.11° C | 66% | 1021.2 hPa | 0 mm | - | - | - |
| 1777540012 | 10° C | 70% | 1021.3 hPa | 0 mm | - | - | - |
| 1777538812 | 9.44° C | 74% | 1021.5 hPa | 0 mm | - | - | - |
| 1777537612 | 8.33° C | 78% | 1021.6 hPa | 0 mm | - | - | - |
* Rain latest hour (hover to see other rain measurements)
** Current wind speed in m/s (hover to see current wind gust speed)